User: anonymous   Login
Location: Unspecified
(0.0000°N, 0.0000°E)
Time: 07:13:07
(UTC+00:00)
Language:

Kosmos-1553 - Orbit

View from above orbital plane
View from above orbital plane
View from above satellite
View from above satellite

Ground track
Ground track

The orbit data is extracted from the following two-line orbital elements,

1 14973U 84046A   17178.95549934 +.00000012 +00000-0 -40446-5 0  9995
2 14973 082.9351 163.0918 0033576 058.9570 329.7908 13.75306509661358
Epoch (UTC): 27 June 2017 22:55:55
Eccentricity: 0.0033576
inclination: 82.9351°
perigee height: 956 km
apogee height: 1005 km
right ascension of ascending node: 163.0918°
argument of perigee: 58.9570°
revolutions per day: 13.75306509
mean anomaly at epoch: 329.7908°
orbit number at epoch: 66135

The dashed part of the orbit path shows where the satellite is in the earth's shadow,  

DLR